Tracking 31027 objects as of 19-Jul-2025
HD Live streaming from Space Station
objects crossing your sky now

SL-14 DEB

Track SL-14 DEB now!
10-day predictions


NORAD ID: 19295
Int'l Code: 1978-100AE
Perigee: 1,261.5 km
Apogee: 2,053.7 km
Inclination: 82.0 °
Period: 119.3 minutes
Semi major axis: 8028 km
RCS: 0.0582 m2 (small)
Launch date: October 26, 1978
Source: Commonwealth of Independent States (former USSR) (CIS)
Launch site: PLESETSK MISSILE AND SPACE COMPLEX (PKMTR)

Note: This is SATELLITE DEBRIS
Your satellite tracking list
TITAN 3C TRANSTAGE DEB
Track 1 satellite(s)




NASA's NSSDC Master Catalog

Two Line Element Set (TLE):
1 19295U 78100AE  25199.48054735  .00000020  00000-0  10024-3 0  9996
2 19295  81.9846 212.8482 0493341 205.3223 312.6205 12.06828527632890
Source of the keplerian elements: AFSPC